When you browse on this site, cookies collect data to enhance your experience and personalize the content and advertising you see.
Visit our Privacy Policy to learn more. By continuing to use the site, you agree to this use of cookies and data.
  • In France
  • List of Countries
  • For 7 days
  • Water Temperature
  • Weather Map
  • Weather Widgets
  • user-avatar
    Login

    Hourly Weather Bushehr

    Today, 5 June, Friday

    Time Temperature Precipitation Wind Pressure Humidity
    00:00 +42°C° 0 mm 10 mps 750 mmHg 12%
    01:00 +40°C° 0 mm 10 mps 750 mmHg 15%
    02:00 +39°C° 0 mm 10 mps 749 mmHg 17%
    03:00 +38°C° 0 mm 10 mps 749 mmHg 20%
    04:00 +38°C° 0 mm 10 mps 750 mmHg 19%
    05:00 +38°C° 0 mm 10 mps 750 mmHg 19%
    06:00 +38°C° 0 mm 11 mps 751 mmHg 18%
    07:00 +40°C° 0 mm 10 mps 751 mmHg 15%
    08:00 +44°C° 0 mm 10 mps 750 mmHg 12%
    09:00 +48°C° 0 mm 10 mps 750 mmHg 9%
    10:00 +49°C° 0 mm 10 mps 750 mmHg 9%
    11:00 +50°C° 0 mm 10 mps 750 mmHg 9%
    12:00 +52°C° 0 mm 10 mps 750 mmHg 9%
    13:00 +52°C° 0 mm 11 mps 749 mmHg 10%
    14:00 +52°C° 0 mm 11 mps 748 mmHg 10%
    15:00 +52°C° 0 mm 11 mps 748 mmHg 11%
    16:00 +51°C° 0 mm 11 mps 748 mmHg 12%
    17:00 +49°C° 0 mm 10 mps 748 mmHg 14%
    18:00 +47°C° 0 mm 10 mps 748 mmHg 15%
    19:00 +47°C° 0 mm 10 mps 748 mmHg 15%
    20:00 +45°C° 0 mm 10 mps 748 mmHg 14%
    21:00 +44°C° 0 mm 11 mps 749 mmHg 13%
    22:00 +44°C° 0 mm 10 mps 749 mmHg 13%
    23:00 +43°C° 0 mm 10 mps 749 mmHg 12%

    Tomorrow, 6 June, Saturday

    Time Temperature Precipitation Wind Pressure Humidity
    00:00 +43°C° 0 mm 9 mps 749 mmHg 11%
    01:00 +42°C° 0 mm 9 mps 748 mmHg 15%
    02:00 +39°C° 0 mm 9 mps 748 mmHg 18%
    03:00 +38°C° 0 mm 8 mps 748 mmHg 21%
    04:00 +38°C° 0 mm 8 mps 748 mmHg 21%
    05:00 +38°C° 0 mm 8 mps 749 mmHg 20%
    06:00 +38°C° 0 mm 7 mps 749 mmHg 19%
    07:00 +41°C° 0 mm 8 mps 749 mmHg 16%
    08:00 +44°C° 0 mm 8 mps 750 mmHg 14%
    09:00 +47°C° 0 mm 9 mps 750 mmHg 11%
    10:00 +48°C° 0 mm 9 mps 750 mmHg 10%
    11:00 +50°C° 0 mm 8 mps 749 mmHg 9%
    12:00 +51°C° 0 mm 8 mps 749 mmHg 9%
    13:00 +51°C° 0 mm 9 mps 748 mmHg 9%
    14:00 +51°C° 0 mm 9 mps 748 mmHg 10%
    15:00 +50°C° 0 mm 10 mps 747 mmHg 11%
    16:00 +49°C° 0 mm 9 mps 747 mmHg 13%
    17:00 +47°C° 0 mm 9 mps 747 mmHg 16%
    18:00 +45°C° 0 mm 8 mps 747 mmHg 18%
    19:00 +43°C° 0 mm 8 mps 748 mmHg 22%
    20:00 +41°C° 0 mm 7 mps 748 mmHg 26%
    21:00 +39°C° 0 mm 6 mps 748 mmHg 30%
    22:00 +39°C° 0 mm 7 mps 748 mmHg 29%
    23:00 +38°C° 0 mm 7 mps 748 mmHg 27%

    Day after tomorrow, 7 June, Sunday

    Time Temperature Precipitation Wind Pressure Humidity
    00:00 +38°C° 0 mm 8 mps 748 mmHg 25%
    01:00 +36°C° 0 mm 7 mps 748 mmHg 24%
    02:00 +36°C° 0 mm 7 mps 748 mmHg 22%
    03:00 +35°C° 0 mm 7 mps 748 mmHg 21%
    04:00 +35°C° 0 mm 6 mps 748 mmHg 21%
    05:00 +36°C° 0 mm 6 mps 748 mmHg 21%
    06:00 +36°C° 0 mm 6 mps 749 mmHg 21%
    07:00 +40°C° 0 mm 6 mps 749 mmHg 16%
    08:00 +44°C° 0 mm 7 mps 749 mmHg 11%
    09:00 +48°C° 0 mm 8 mps 749 mmHg 6%
    10:00 +49°C° 0 mm 8 mps 749 mmHg 6%
    11:00 +50°C° 0 mm 8 mps 749 mmHg 6%
    12:00 +50°C° 0 mm 9 mps 749 mmHg 6%
    13:00 +50°C° 0 mm 8 mps 748 mmHg 8%
    14:00 +49°C° 0 mm 8 mps 748 mmHg 10%
    15:00 +49°C° 0 mm 8 mps 747 mmHg 11%
    16:00 +46°C° 0 mm 8 mps 747 mmHg 15%
    17:00 +44°C° 0 mm 8 mps 747 mmHg 19%
    18:00 +43°C° 0 mm 8 mps 747 mmHg 23%
    19:00 +41°C° 0 mm 7 mps 748 mmHg 27%
    20:00 +39°C° 0 mm 7 mps 748 mmHg 30%
    21:00 +38°C° 0 mm 6 mps 748 mmHg 33%
    22:00 +38°C° 0 mm 6 mps 748 mmHg 27%
    23:00 +38°C° 0 mm 6 mps 748 mmHg 20%

    8 June, Monday

    Time Temperature Precipitation Wind Pressure Humidity
    00:00 +38°C° 0 mm 7 mps 748 mmHg 14%
    01:00 +36°C° 0 mm 6 mps 748 mmHg 12%
    02:00 +35°C° 0 mm 5 mps 747 mmHg 10%
    03:00 +35°C° 0 mm 5 mps 747 mmHg 8%
    04:00 +35°C° 0 mm 5 mps 747 mmHg 11%
    05:00 +35°C° 0 mm 4 mps 747 mmHg 13%
    06:00 +35°C° 0 mm 4 mps 747 mmHg 16%
    07:00 +39°C° 0 mm 5 mps 748 mmHg 13%
    08:00 +41°C° 0 mm 5 mps 748 mmHg 11%
    09:00 +45°C° 0 mm 5 mps 748 mmHg 9%
    10:00 +45°C° 0 mm 6 mps 748 mmHg 9%
    11:00 +46°C° 0 mm 6 mps 748 mmHg 9%
    12:00 +47°C° 0 mm 7 mps 747 mmHg 10%
    13:00 +46°C° 0 mm 6 mps 747 mmHg 10%
    14:00 +46°C° 0 mm 6 mps 747 mmHg 10%
    15:00 +46°C° 0 mm 5 mps 747 mmHg 11%
    16:00 +43°C° 0 mm 5 mps 746 mmHg 16%
    17:00 +41°C° 0 mm 4 mps 746 mmHg 22%
    18:00 +38°C° 0 mm 4 mps 746 mmHg 27%
    19:00 +37°C° 0 mm 3 mps 747 mmHg 30%
    20:00 +35°C° 0 mm 3 mps 747 mmHg 33%
    21:00 +32°C° 0 mm 2 mps 747 mmHg 36%
    22:00 +32°C° 0 mm 2 mps 747 mmHg 38%
    23:00 +31°C° 0 mm 2 mps 747 mmHg 39%

    9 June, Tuesday

    Time Temperature Precipitation Wind Pressure Humidity
    00:00 +31°C° 0 mm 2 mps 747 mmHg 41%
    01:00 +30°C° 0 mm 2 mps 747 mmHg 41%
    02:00 +29°C° 0 mm 2 mps 747 mmHg 42%
    03:00 +29°C° 0 mm 3 mps 747 mmHg 43%
    04:00 +30°C° 0 mm 2 mps 747 mmHg 38%
    05:00 +32°C° 0 mm 1 mps 748 mmHg 32%
    06:00 +33°C° 0 mm 1 mps 748 mmHg 27%
    07:00 +36°C° 0 mm 1 mps 748 mmHg 21%
    08:00 +41°C° 0 mm 1 mps 749 mmHg 15%
    09:00 +45°C° 0 mm 2 mps 749 mmHg 9%
    10:00 +45°C° 0 mm 3 mps 749 mmHg 9%
    11:00 +46°C° 0 mm 3 mps 749 mmHg 9%
    12:00 +47°C° 0 mm 4 mps 749 mmHg 9%
    13:00 +47°C° 0 mm 4 mps 749 mmHg 11%
    14:00 +45°C° 0 mm 4 mps 749 mmHg 13%
    15:00 +44°C° 0 mm 4 mps 749 mmHg 15%
    16:00 +42°C° 0 mm 4 mps 749 mmHg 20%
    17:00 +41°C° 0 mm 4 mps 749 mmHg 25%
    18:00 +38°C° 0 mm 4 mps 748 mmHg 30%
    19:00 +36°C° 0 mm 3 mps 749 mmHg 35%
    20:00 +35°C° 0 mm 3 mps 749 mmHg 41%
    21:00 +32°C° 0 mm 2 mps 749 mmHg 46%
    22:00 +31°C° 0 mm 2 mps 749 mmHg 46%
    23:00 +30°C° 0 mm 2 mps 749 mmHg 47%

    10 June, Wednesday

    Time Temperature Precipitation Wind Pressure Humidity
    00:00 +30°C° 0 mm 1 mps 749 mmHg 47%
    01:00 +29°C° 0 mm 1 mps 748 mmHg 48%
    02:00 +29°C° 0 mm 1 mps 748 mmHg 48%
    03:00 +28°C° 0 mm 1 mps 748 mmHg 48%
    04:00 +30°C° 0 mm 1 mps 749 mmHg 44%
    05:00 +32°C° 0 mm 2 mps 749 mmHg 40%
    06:00 +34°C° 0 mm 2 mps 750 mmHg 37%
    07:00 +37°C° 0 mm 3 mps 750 mmHg 32%
    08:00 +39°C° 0 mm 3 mps 750 mmHg 28%
    09:00 +42°C° 0 mm 4 mps 750 mmHg 24%
    10:00 +43°C° 0 mm 4 mps 750 mmHg 23%
    11:00 +44°C° 0 mm 4 mps 750 mmHg 21%
    12:00 +44°C° 0 mm 4 mps 750 mmHg 20%
    13:00 +44°C° 0 mm 4 mps 750 mmHg 21%
    14:00 +44°C° 0 mm 3 mps 749 mmHg 21%
    15:00 +43°C° 0 mm 3 mps 749 mmHg 21%
    16:00 +42°C° 0 mm 3 mps 749 mmHg 23%
    17:00 +40°C° 0 mm 3 mps 749 mmHg 26%
    18:00 +39°C° 0 mm 2 mps 749 mmHg 28%
    19:00 +36°C° 0 mm 2 mps 749 mmHg 31%
    20:00 +33°C° 0 mm 1 mps 749 mmHg 35%
    21:00 +31°C° 0 mm 1 mps 749 mmHg 38%
    22:00 +31°C° 0 mm 1 mps 749 mmHg 38%
    23:00 +30°C° 0 mm 1 mps 749 mmHg 37%
    Show more